This is the latest recevied weather packets stored in our database for station/object DL9GRB-13. If no packets are shown the sender has not sent any weather packets the latest 10 day(s).
| Time | Temp. | Humidity | Pressure | Rain* | Wind** | Luminosity | Snow |
|---|---|---|---|---|---|---|---|
| 1777094764 | 7.22° C | 82% | 1011.8 hPa | 0 mm | - | 77 W/m² | - |
| 1777094584 | 7.22° C | 82% | 1011.7 hPa | 0 mm | - | 78 W/m² | - |
| 1777094404 | 7.22° C | 82% | 1011.8 hPa | 0 mm | - | 77 W/m² | - |
| 1777094224 | 7.22° C | 82% | 1011.8 hPa | 0 mm | - | 71 W/m² | - |
| 1777094044 | 6.67° C | 83% | 1011.8 hPa | 0 mm | - | 73 W/m² | - |
| 1777093864 | 6.67° C | 83% | 1011.9 hPa | 0 mm | - | 65 W/m² | - |
| 1777093684 | 6.67° C | 83% | 1011.5 hPa | 0 mm | - | 61 W/m² | - |
| 1777093504 | 6.67° C | 83% | 1011.7 hPa | 0 mm | - | 57 W/m² | - |
| 1777093324 | 6.67° C | 83% | 1011.6 hPa | 0 mm | - | 59 W/m² | - |
| 1777093144 | 6.67° C | 83% | 1011.7 hPa | 0 mm | - | 53 W/m² | - |
| 1777092964 | 6.67° C | 83% | 1011.6 hPa | 0 mm | - | 52 W/m² | - |
| 1777092784 | 6.67° C | 84% | 1011.6 hPa | 0 mm | - | 50 W/m² | - |
| 1777092604 | 6.67° C | 84% | 1011.4 hPa | 0 mm | - | 50 W/m² | - |
| 1777092424 | 6.67° C | 84% | 1011.6 hPa | 0 mm | - | 40 W/m² | - |
| 1777092244 | 6.67° C | 84% | 1011.4 hPa | 0 mm | - | 36 W/m² | - |
| 1777092064 | 6.67° C | 84% | 1011.5 hPa | 0 mm | - | 36 W/m² | - |
| 1777091884 | 6.67° C | 84% | 1011.6 hPa | 0 mm | - | 35 W/m² | - |
| 1777091704 | 6.67° C | 84% | 1011.5 hPa | 0 mm | - | 30 W/m² | - |
| 1777091524 | 6.67° C | 84% | 1011.6 hPa | 0 mm | - | 27 W/m² | - |
| 1777091344 | 6.67° C | 85% | 1011.7 hPa | 0 mm | - | 24 W/m² | - |
| 1777091164 | 6.11° C | 85% | 1011.5 hPa | 0 mm | - | 21 W/m² | - |
| 1777090984 | 6.11° C | 85% | 1011.7 hPa | 0 mm | - | 18 W/m² | - |
| 1777090804 | 6.11° C | 85% | 1011.6 hPa | 0 mm | - | 15 W/m² | - |
| 1777090624 | 6.11° C | 86% | 1011.5 hPa | 0 mm | - | 13 W/m² | - |
| 1777090444 | 6.11° C | 86% | 1011.7 hPa | 0 mm | - | 12 W/m² | - |
* Rain latest hour (hover to see other rain measurements)
** Current wind speed in m/s (hover to see current wind gust speed)